GW0552 Weather Reports


time (UTC)temp
C
wind
direction
speed
KPH
gust
KPH
rain 1hr
cm
rain 24hr
cm
rain mn
cm
humidity
%
barometer
mb
20260906002909 24 73 0.0 0.0 0.00 0.08 0.08 97 1008.1
20260906002409 25 73 0.0 0.0 0.00 0.08 0.08 96 1008.1
20260906001904 25 72 0.0 0.0 0.00 0.08 0.08 96 1008.2
20260906001400 25 72 0.0 0.0 0.00 0.08 0.08 96 1008.3
20260906000859 25 73 0.0 0.0 0.00 0.08 0.08 96 1008.3
20260906000400 25 73 0.0 0.0 0.00 0.08 0.08 96 1008.4
20260905235855 25 73 0.0 0.0 0.00 0.08 0.08 95 1008.2
20260905235349 25 72 0.0 0.0 0.00 0.08 0.08 95 1008.3
20260905234844 25 72 0.0 0.0 0.00 0.08 0.08 94 1008.3
20260905234340 25 72 0.0 0.0 0.00 0.08 0.08 94 1008.4
20260905233835 26 71 0.0 0.0 0.00 0.08 0.08 93 1008.7
20260905233329 26 71 0.0 0.0 0.00 0.08 0.08 93 1008.8
20260905232829 26 71 0.0 0.0 0.00 0.08 0.08 92 1008.7
20260905232325 26 71 0.0 0.0 0.00 0.08 0.08 91 1008.6
20260905231821 26 71 0.0 0.0 0.00 0.08 0.08 91 1008.5
20260905231315 26 71 0.0 0.0 0.00 0.08 0.08 90 1008.4
20260905230812 26 71 0.0 0.0 0.00 0.08 0.08 89 1008.4
20260905230310 26 71 0.0 0.0 0.00 0.08 0.08 89 1008.3
20260905225809 27 71 0.0 0.0 0.00 0.08 0.08 89 1008.5
20260905225306 27 71 0.0 0.0 0.00 0.08 0.08 89 1008.5
20260905224804 27 71 0.0 0.0 0.00 0.08 0.08 89 1008.6
20260905224300 27 71 0.0 0.0 0.00 0.08 0.08 88 1008.3
20260905223755 27 71 0.0 0.0 0.00 0.08 0.08 88 1008.3
20260905223252 27 70 0.0 0.0 0.00 0.08 0.08 87 1008.3
20260905222747 27 70 0.0 0.0 0.00 0.08 0.08 87 1008.3
20260905222246 27 69 0.0 0.0 0.00 0.08 0.08 85 1008.4
20260905221742 27 69 0.0 0.0 0.00 0.08 0.08 85 1008.5
20260905221239 27 69 0.0 0.0 0.00 0.08 0.08 85 1008.3
20260905220734 27 69 0.0 0.0 0.00 0.08 0.08 86 1008.3
20260905220231 27 70 0.0 0.0 0.00 0.08 0.08 83 1008.3
20260905215730 28 68 1.6 1.6 0.00 0.08 0.08 82 1008.4
20260905215226 28 68 0.0 0.0 0.00 0.08 0.08 81 1008.3
20260905214721 28 40 3.2 3.2 0.00 0.08 0.08 78 1008.5
20260905214217 28 55 1.6 3.2 0.00 0.08 0.08 79 1008.4
20260905213712 28 14 1.6 3.2 0.00 0.08 0.08 75 1008.4
20260905213208 29 60 1.6 1.6 0.00 0.08 0.08 74 1008.2
20260905212703 29 47 4.8 4.8 0.00 0.08 0.08 75 1008.0
20260905212202 29 36 4.8 4.8 0.00 0.08 0.08 74 1008.3
20260905211656 29 78 3.2 3.2 0.00 0.08 0.08 75 1008.3
20260905211152 29 59 1.6 3.2 0.00 0.08 0.08 74 1008.5
20260905210648 29 67 0.0 0.0 0.00 0.08 0.08 75 1008.3
20260905210143 30 102 3.2 3.2 0.00 0.08 0.08 74 1008.3
20260905205642 29 61 3.2 3.2 0.00 0.08 0.08 74 1008.3
20260905205142 28 53 3.2 3.2 0.00 0.08 0.08 77 1008.1
20260905204641 28 100 3.2 3.2 0.00 0.08 0.08 75 1008.2
20260905204136 28 44 4.8 4.8 0.00 0.08 0.08 80 1008.2
20260905203631 28 81 1.6 3.2 0.00 0.08 0.08 79 1008.2
20260905203126 28 82 1.6 3.2 0.00 0.08 0.08 84 1008.3
20260905202622 28 72 0.0 1.6 0.00 0.08 0.08 84 1008.5
20260905202117 27 75 1.6 3.2 0.00 0.08 0.08 88 1008.1
20260905201613 27 79 1.6 3.2 0.00 0.08 0.08 87 1008.5
20260905201112 27 69 0.0 0.0 0.00 0.08 0.08 84 1008.8
20260905200608 27 64 0.0 0.0 0.30 0.08 0.08 82 1008.7
20260905195556 28 40 1.6 3.2 0.00 0.03 0.03 72 1008.9
20260905195051 29 133 8.0 9.7 0.00 0.03 0.03 70 1008.8
20260905194551 29 67 1.6 3.2 0.00 0.03 0.03 70 1008.9
20260905194050 30 97 3.2 4.8 0.00 0.03 0.03 67 1008.9
20260905193545 30 276 6.4 8.0 0.00 0.03 0.03 66 1008.8
20260905193041 30 85 1.6 3.2 0.00 0.03 0.03 67 1008.9
20260905192536 29 31 1.6 1.6 0.00 0.03 0.03 67 1008.9
20260905192032 30 260 8.0 8.0 0.00 0.03 0.03 67 1009.0
20260905191530 30 314 6.4 8.0 0.00 0.03 0.03 64 1009.2
20260905191030 30 32 3.2 3.2 0.00 0.03 0.03 68 1009.2
20260905190528 30 114 0.0 0.0 0.00 0.03 0.03 68 1009.1
20260905190028 30 72 1.6 1.6 0.00 0.03 0.03 70 1009.1
20260905185527 30 55 1.6 1.6 0.00 0.03 0.03 68 1009.3
20260905185026 30 249 6.4 8.0 0.00 0.03 0.03 69 1009.5
20260905184521 29 249 6.4 8.0 0.00 0.03 0.03 70 1009.5
20260905184019 29 337 1.6 3.2 0.00 0.03 0.03 70 1009.7
20260905183514 29 290 4.8 4.8 0.00 0.03 0.03 72 1009.7
20260905183009 28 274 4.8 4.8 0.00 0.03 0.03 74 1009.9
20260905182503 28 283 8.0 9.7 0.00 0.03 0.03 73 1009.8
20260905181957 28 68 1.6 1.6 0.00 0.03 0.03 73 1010.1
20260905181452 28 184 4.8 8.0 0.00 0.03 0.03 72 1009.8
20260905180951 29 68 1.6 1.6 0.00 0.03 0.03 73 1009.8
20260905180446 28 19 4.8 4.8 0.00 0.03 0.03 74 1009.9
20260905175942 28 244 6.4 8.0 0.00 0.03 0.03 77 1009.9
20260905175441 28 114 0.0 1.6 0.00 0.03 0.03 77 1009.9
20260905174936 28 183 6.4 9.7 0.00 0.03 0.03 76 1010.0
20260905174432 28 163 4.8 8.0 0.00 0.03 0.03 77 1009.9
20260905173927 27 20 6.4 8.0 0.00 0.03 0.03 82 1009.9
20260905173424 27 56 4.8 4.8 0.00 0.03 0.03 80 1010.2
20260905172919 27 92 1.6 3.2 0.00 0.03 0.03 80 1010.4
20260905172417 27 239 8.0 9.7 0.00 0.03 0.03 82 1010.3
20260905171913 27 221 3.2 3.2 0.00 0.03 0.03 82 1010.5
20260905171409 27 221 6.4 9.7 0.00 0.03 0.03 83 1010.4
20260905170906 27 265 9.7 11.3 0.00 0.03 0.03 83 1010.5
20260905170401 27 64 1.6 1.6 0.00 0.03 0.03 82 1010.5
20260905165901 27 176 4.8 4.8 0.00 0.03 0.03 84 1010.4
20260905165355 27 37 4.8 9.7 0.00 0.03 0.03 82 1010.3
20260905164850 27 249 9.7 11.3 0.00 0.03 0.03 81 1010.7
20260905164345 27 249 9.7 11.3 0.00 0.03 0.03 81 1010.7
20260905163841 27 165 1.6 3.2 0.00 0.03 0.03 83 1010.5
20260905163337 27 359 4.8 8.0 0.00 0.03 0.03 82 1010.7
20260905162832 26 34 1.6 1.6 0.00 0.03 0.03 85 1010.7
20260905162326 26 65 3.2 3.2 0.00 0.03 0.03 85 1010.6
20260905161827 26 74 3.2 3.2 0.00 0.03 0.03 86 1010.3
20260905161327 26 67 0.0 0.0 0.00 0.03 0.03 87 1010.5
20260905160825 25 62 1.6 1.6 0.00 0.03 0.03 90 1010.5
20260905160319 25 62 1.6 1.6 0.00 0.03 0.03 90 1010.5
20260905155813 25 61 0.0 1.6 0.00 0.03 0.03 91 1010.3
20260905155307 25 60 0.0 0.0 0.00 0.03 0.03 91 1010.1
20260905154801 25 70 6.4 8.0 0.00 0.03 0.03 90 1010.2
20260905154257 25 86 4.8 4.8 0.00 0.03 0.03 91 1010.4
20260905153752 24 66 1.6 1.6 0.00 0.03 0.03 91 1010.4
20260905153248 24 55 3.2 3.2 0.00 0.03 0.03 91 1010.2
20260905152742 24 73 1.6 3.2 0.00 0.03 0.03 92 1010.7
20260905152237 24 18 4.8 4.8 0.00 0.03 0.03 92 1010.9
20260905151736 23 63 4.8 4.8 0.00 0.03 0.03 93 1010.2
20260905151232 23 85 6.4 8.0 0.00 0.03 0.03 94 1009.8
20260905150726 23 72 4.8 4.8 0.00 0.03 0.03 95 1010.3
20260905150225 23 66 1.6 1.6 0.00 0.03 0.03 95 1010.8
20260905145723 23 59 0.0 0.0 0.00 0.03 0.03 95 1011.2
20260905145218 23 62 3.2 3.2 0.00 0.03 0.03 94 1011.1
20260905144717 23 77 3.2 3.2 0.00 0.03 0.03 94 1011.1
20260905144212 23 70 1.6 3.2 0.00 0.03 0.03 95 1010.7
20260905143712 23 63 4.8 4.8 0.00 0.03 0.03 95 1010.8
20260905143212 23 62 0.0 0.0 0.00 0.03 0.03 97 1011.3
20260905142705 23 59 0.0 0.0 0.00 0.03 0.03 97 1011.6
20260905142205 23 64 0.0 0.0 0.00 0.03 0.03 97 1011.4
20260905141701 23 58 3.2 3.2 0.00 0.03 0.03 97 1010.9
20260905141156 23 65 1.6 1.6 0.00 0.03 0.03 96 1011.1
20260905140651 23 67 1.6 3.2 0.00 0.03 0.03 97 1011.0
20260905140145 23 67 1.6 1.6 0.00 0.03 0.03 96 1011.4
20260905135640 22 40 1.6 1.6 0.00 0.03 0.03 95 1011.3
20260905135136 23 149 0.0 1.6 0.00 0.03 0.03 95 1011.7
20260905134630 23 60 0.0 0.0 0.00 0.03 0.03 97 1011.6
20260905134129 23 2 3.2 3.2 0.00 0.03 0.03 95 1011.5
20260905133625 22 77 3.2 4.8 0.00 0.03 0.03 96 1011.9
20260905133125 22 44 3.2 3.2 0.00 0.03 0.03 98 1011.9
20260905132624 22 75 0.0 0.0 0.00 0.03 0.03 99 1011.8
20260905132119 22 17 0.0 0.0 0.00 0.03 0.03 99 1011.8
20260905131614 22 50 0.0 0.0 0.00 0.03 0.03 99 1012.1
20260905131110 22 71 1.6 1.6 0.00 0.03 0.03 99 1011.9
20260905130609 22 234 6.4 8.0 0.00 0.03 0.03 99 1012.0
20260905125603 22 61 0.0 0.0 0.00 0.03 0.03 99 1012.0
20260905125059 22 68 0.0 0.0 0.00 0.03 0.03 99 1011.9
20260905124555 22 33 1.6 1.6 0.00 0.03 0.03 99 1012.1
20260905124051 22 56 1.6 1.6 0.00 0.03 0.03 99 1011.9
20260905123546 22 125 4.8 4.8 0.00 0.03 0.03 99 1011.7
20260905123043 22 43 1.6 1.6 0.00 0.03 0.03 99 1011.8
20260905122543 22 40 1.6 1.6 0.00 0.03 0.03 99 1011.8
20260905122037 22 38 0.0 0.0 0.00 0.03 0.03 99 1011.7
20260905121532 22 214 6.4 9.7 0.00 0.03 0.03 99 1011.6
20260905121027 22 83 1.6 1.6 0.00 0.03 0.03 99 1011.6
20260905120526 22 260 3.2 3.2 0.00 0.03 0.03 99 1011.9
20260905120022 22 304 4.8 4.8 0.00 0.03 0.03 99 1011.6
20260905115520 22 48 0.0 0.0 0.00 0.03 0.03 99 1010.6
20260905115016 22 48 0.0 0.0 0.00 0.03 0.03 99 1010.3
20260905114515 22 41 0.0 0.0 0.00 0.03 0.03 99 1010.3
20260905114014 22 49 0.0 0.0 0.00 0.03 0.03 99 1010.4
20260905113509 22 58 1.6 3.2 0.00 0.03 0.03 99 1010.2
20260905113005 22 65 0.0 1.6 0.00 0.03 0.03 99 1009.9
20260905112500 22 294 6.4 8.0 0.00 0.03 0.03 99 1010.2
20260905111955 21 258 9.7 12.9 0.00 0.03 0.03 99 1010.0
20260905111450 21 50 0.0 0.0 0.00 0.03 0.03 99 1009.2
20260905110949 21 61 0.0 0.0 0.00 0.03 0.03 99 1009.0
20260905110449 21 64 0.0 0.0 0.00 0.03 0.03 99 1009.1
20260905105948 21 63 0.0 0.0 0.00 0.03 0.03 99 1008.9
20260905105443 21 63 0.0 0.0 0.00 0.03 0.03 99 1009.3
20260905104942 21 63 0.0 0.0 0.00 0.03 0.03 99 1009.1
20260905104439 21 66 0.0 0.0 0.00 0.03 0.03 99 1009.1
20260905103933 21 58 0.0 0.0 0.00 0.03 0.03 99 1009.1
20260905103428 21 66 0.0 1.6 0.00 0.03 0.03 99 1009.0
20260905102924 21 65 1.6 1.6 0.00 0.03 0.03 99 1008.9
20260905102420 21 63 3.2 3.2 0.00 0.03 0.03 99 1009.3
20260905101915 21 61 0.0 0.0 0.00 0.03 0.03 99 1009.1
20260905101414 21 66 0.0 0.0 0.00 0.03 0.03 99 1009.2
20260905100909 21 61 0.0 0.0 0.00 0.03 0.03 99 1009.2
20260905100405 21 53 0.0 0.0 0.00 0.03 0.03 99 1009.3
20260905095904 21 52 0.0 0.0 0.00 0.03 0.03 99 1009.3
20260905095358 21 52 0.0 0.0 0.00 0.03 0.03 99 1009.2
20260905094853 22 59 0.0 0.0 0.00 0.03 0.03 99 1008.9
20260905094349 22 78 3.2 3.2 0.18 0.03 0.03 99 1008.9
20260905093847 22 63 3.2 3.2 0.18 0.03 0.03 99 1008.8
20260905093343 22 77 6.4 8.0 0.18 0.03 0.03 99 1008.8
20260905092839 22 76 3.2 3.2 0.00 0.00 0.00 99 1009.2
20260905092338 22 61 3.2 3.2 0.00 0.00 0.00 99 1009.3
20260905091834 22 65 1.6 1.6 0.00 0.00 0.00 99 1009.3
20260905091333 22 70 1.6 3.2 0.00 0.00 0.00 99 1009.4
20260905090832 21 49 0.0 0.0 0.00 0.00 0.00 99 1009.8
20260905090323 21 51 0.0 0.0 0.00 0.00 0.00 99 1009.3
20260905085822 21 45 0.0 0.0 0.00 0.00 0.00 99 1009.3
20260905085316 21 37 0.0 0.0 0.00 0.00 0.00 99 1008.9
20260905084812 21 68 0.0 0.0 0.00 0.00 0.00 99 1009.1
20260905084311 21 55 0.0 0.0 0.00 0.00 0.00 99 1009.0
20260905083806 21 60 0.0 0.0 0.00 0.00 0.00 99 1009.2
20260905083302 21 60 0.0 0.0 0.00 0.00 0.00 99 1009.0
20260905082757 21 48 0.0 0.0 0.00 0.00 0.00 99 1009.0
20260905082254 21 65 0.0 0.0 0.00 0.00 0.00 99 1009.0
20260905081753 21 65 0.0 0.0 0.00 0.00 0.00 99 1008.8
20260905081249 21 61 0.0 0.0 0.00 0.00 0.00 99 1009.1
20260905080743 21 61 0.0 0.0 0.00 0.00 0.00 99 1008.9
20260905080243 21 61 0.0 0.0 0.00 0.00 0.00 99 1009.1
20260905075741 21 61 0.0 0.0 0.00 0.00 0.00 99 1009.2
20260905075241 21 62 0.0 0.0 0.00 0.00 0.00 99 1009.0
20260905074740 21 74 0.0 0.0 0.00 0.00 0.00 99 1009.1
20260905074236 21 65 0.0 0.0 0.00 0.00 0.00 99 1009.3
20260905073731 21 66 0.0 0.0 0.00 0.00 0.00 99 1009.2
20260905073227 21 65 0.0 0.0 0.00 0.00 0.00 99 1009.4
20260905072726 21 65 0.0 0.0 0.00 0.00 0.00 99 1009.4
20260905072221 21 60 0.0 0.0 0.00 0.00 0.00 99 1009.4
20260905071718 21 60 0.0 0.0 0.00 0.00 0.00 99 1009.5
20260905071214 21 60 0.0 0.0 0.00 0.00 0.00 99 1009.5
20260905070709 21 60 0.0 0.0 0.00 0.00 0.00 99 1009.8
20260905070205 21 60 0.0 0.0 0.00 0.00 0.00 99 1009.9
20260905065703 21 60 0.0 0.0 0.00 0.00 0.00 99 1009.8
20260905065157 21 65 0.0 0.0 0.00 0.00 0.00 99 1010.0
20260905064653 21 65 0.0 0.0 0.00 0.00 0.00 99 1010.1
20260905064149 21 66 0.0 0.0 0.00 0.00 0.00 99 1010.2
20260905063647 21 66 0.0 0.0 0.00 0.00 0.00 99 1010.1
20260905063143 21 64 0.0 0.0 0.00 0.00 0.00 99 1010.2
20260905062639 21 64 0.0 0.0 0.00 0.00 0.00 99 1010.5
20260905062138 21 66 0.0 0.0 0.00 0.00 0.00 99 1010.5
20260905061633 21 62 0.0 0.0 0.00 0.00 0.00 99 1010.6
20260905061132 21 55 0.0 0.0 0.00 0.00 0.00 99 1010.5
20260905060628 22 55 0.0 0.0 0.00 0.00 0.00 99 1010.5
20260905060124 22 62 0.0 0.0 0.00 0.00 0.00 99 1010.9
20260905055622 22 64 0.0 0.0 0.00 0.00 0.00 99 1010.7
20260905055118 22 64 0.0 0.0 0.00 0.00 0.00 99 1010.9
20260905054614 22 75 1.6 1.6 0.00 0.00 0.00 99 1010.9
20260905054109 22 70 1.6 1.6 0.00 0.00 0.00 99 1010.8
20260905053608 22 79 3.2 3.2 0.00 0.00 0.00 99 1011.0
20260905053104 22 76 1.6 3.2 0.00 0.00 0.00 99 1011.2
20260905052603 22 59 0.0 0.0 0.00 0.00 0.00 99 1011.2
20260905052058 22 59 0.0 0.0 0.00 0.00 0.00 99 1011.3
20260905051554 22 58 0.0 0.0 0.00 0.00 0.00 99 1011.3
20260905051050 22 59 0.0 0.0 0.00 0.00 0.00 99 1011.3
20260905050546 22 59 0.0 0.0 0.00 0.00 0.00 99 1011.2
20260905050043 22 59 0.0 0.0 0.00 0.00 0.00 99 1011.4
20260905045537 22 59 0.0 0.0 0.00 0.00 0.00 99 1011.2
20260905045033 22 59 0.0 0.0 0.00 0.00 0.00 99 1011.5
20260905044532 22 59 0.0 0.0 0.00 0.00 0.00 99 1011.3
20260905044027 22 65 0.0 0.0 0.00 0.00 0.00 99 1011.3
20260905043526 22 65 0.0 0.0 0.00 0.00 0.00 99 1011.5
20260905043022 22 65 0.0 0.0 0.00 0.00 0.00 99 1011.4
20260905042520 22 65 0.0 0.0 0.00 0.00 0.00 99 1011.3
20260905042016 22 65 0.0 0.0 0.00 0.00 0.00 99 1011.3
20260905041511 22 65 0.0 0.0 0.00 0.00 0.00 99 1011.3
20260905041007 22 65 0.0 0.0 0.00 0.00 0.00 99 1011.3
20260905040506 22 65 0.0 0.0 0.00 0.00 0.00 99 1011.1
20260905040005 22 65 0.0 0.0 0.00 0.00 0.00 99 1011.2
20260905035500 22 65 0.0 0.0 0.00 0.00 0.00 99 1011.2
20260905034957 22 66 0.0 0.0 0.00 0.00 0.00 99 1010.9
20260905034458 22 63 0.0 0.0 0.00 0.00 0.00 99 1011.0
20260905033956 22 63 0.0 0.0 0.00 0.00 0.00 99 1011.0
20260905033451 22 62 0.0 0.0 0.00 0.00 0.00 99 1011.1
20260905032946 22 68 0.0 0.0 0.00 0.00 0.00 99 1010.9
20260905032442 22 68 0.0 0.0 0.00 0.00 0.00 99 1010.8
20260905031936 22 67 0.0 0.0 0.00 0.00 0.00 99 1011.0
20260905031432 22 68 0.0 0.0 0.00 0.00 0.00 99 1010.9
20260905030927 22 64 0.0 0.0 0.00 0.00 0.00 99 1011.2
20260905030423 23 64 0.0 0.0 0.00 0.00 0.00 99 1011.2
20260905025921 22 64 0.0 0.0 0.00 0.00 0.00 98 1011.0
20260905025417 23 64 0.0 0.0 0.00 0.00 0.00 99 1011.1
20260905024914 23 64 0.0 0.0 0.00 0.00 0.00 99 1011.2
20260905024408 23 64 0.0 0.0 0.00 0.00 0.00 99 1011.1
20260905023904 23 64 0.0 0.0 0.00 0.00 0.00 99 1011.1
20260905023359 23 64 0.0 0.0 0.00 0.00 0.00 98 1010.9
20260905022857 23 64 0.0 0.0 0.00 0.00 0.00 98 1010.8
20260905022348 23 63 0.0 0.0 0.00 0.00 0.00 98 1011.0
20260905021848 23 64 0.0 0.0 0.00 0.00 0.00 98 1011.2
20260905021343 23 69 0.0 0.0 0.00 0.00 0.00 99 1011.4
20260905020838 23 67 0.0 0.0 0.00 0.00 0.00 99 1011.2
20260905020333 23 58 0.0 0.0 0.00 0.00 0.00 98 1011.3
20260905015832 23 61 0.0 0.0 0.00 0.00 0.00 98 1011.3
20260905015331 23 66 0.0 0.0 0.00 0.00 0.00 98 1011.1
20260905014831 23 56 0.0 0.0 0.00 0.00 0.00 98 1011.2
20260905014327 23 55 0.0 0.0 0.00 0.00 0.00 98 1011.0
20260905013821 23 54 0.0 0.0 0.00 0.00 0.00 98 1011.0
20260905013318 23 27 0.0 0.0 0.00 0.00 0.00 98 1011.1
20260905012813 23 63 0.0 0.0 0.00 0.00 0.00 97 1011.0
20260905012309 23 64 0.0 0.0 0.00 0.00 0.00 97 1010.8
20260905011805 24 64 0.0 0.0 0.00 0.00 0.00 97 1010.7
20260905011300 24 63 0.0 0.0 0.00 0.00 0.00 96 1011.0
20260905010754 24 62 0.0 0.0 0.00 0.00 0.00 95 1010.8
20260905010250 24 63 0.0 0.0 0.00 0.00 0.00 95 1010.6
20260905005747 24 63 0.0 0.0 0.00 0.00 0.00 96 1010.5
20260905005242 24 59 0.0 0.0 0.00 0.00 0.00 96 1010.5
20260905004742 24 46 0.0 0.0 0.00 0.00 0.00 95 1010.6
20260905004242 24 46 0.0 0.0 0.00 0.00 0.00 96 1010.8
20260905003742 24 37 0.0 0.0 0.00 0.00 0.00 96 1010.5